Weather in Tselinny

Russia / Saratov Oblast     51°20′36″N   48°31′12″E
temp.,
°C
wind,
m/s
gust,
m/s
humid.,
%
clouds,
%
prec.,
mm/h
press.,
hPa
HPBL,
m
19 april, mon
mon1901:00+13ne4780100 0.1 1015211
04:00+10ne5108450 0.1 1015275
07:00+9ne71175100 0.1 1016427
10:00+9ene71076100 0.3 1017560
13:00+13ene7866100 0.1 1016953
16:00+12ene81178100 0.1 1016646
19:00+10ene91483100 1.4 1017868
22:00+7e91583100 2.4 1019639
20 april, tue
tue2001:00+5e81387100 3.4 1020644
04:00+4e91485100 5.2 1021636
07:00+4e91585100 1.8 1022657
10:00+4ese91577100 2.1 1024684
13:00+9ese111459100 0.0 1022973
16:00+9ese91462100 0.0 1021927
19:00+9ese91560100 0.0 1021956
22:00+8ese111956100 0.0 1020802
21 april, wed
wed2101:00+6se91765100 1.1 1020745
04:00+4ese91776100 8.2 1021763
07:00+3se101982100 0.7 1021670
10:00+3se101989100 3.3 1022691
13:00+3se91689100 2.5 1022679
16:00+3se81493100 3.3 1022562
19:00+4sse71395100 4.1 1023586
22:00+5sse61194100 3.1 1023469
22 april, thu
thu2201:00+5sse51096100 0.1 1023376
04:00+5sse4798100 0.1 1023283
07:00+6se3698100 0.0 1024249
10:00+8sse468898 0.0 1025372
13:00+13se4458100 0.0 1024806
16:00+13se6655100 0.0 1025975
19:00+9se6778100 0.0 1026567
22:00+7ese4588100 0.0 1026462
23 april, fri
fri2301:00+7ese3587100 0.0 1025503
04:00+7e2291100 0.0 1025267
07:00+7ne359087 0.0 1024366
10:00+9ne457998 0.0 1024690
13:00+10ne4570100 0.0 1023989
16:00+10nne4472100 0.0 1022860
19:00+10n457366 0.0 1021418
22:00+7n348489 0.0 102165